{"data":{"norad_id":64880,"intl_designator":"2025-155E","name":"GEOSCAN 1 (RS92S1)","alt_names":[],"object_type":"PAYLOAD","status":"ACTIVE","operator":null,"country":"CIS","launch_date":"2025-07-25","launch_site_code":"VOSTO","launch_vehicle":null,"mission":null,"orbit_class":"UNKNOWN","rcs_meters":null,"size_class":null,"mass_kg":null,"dimensions":null,"purposes":["comms"],"wikipedia_slug":null,"has_3d_model":false,"image_url":null,"decayed_at":null,"tle_current":{"epoch":"2026-05-25T04:04:55.089120Z","epoch_age_seconds":56409,"freshness":"FRESH","line1":"1 64880U 25155E   26145.17008205  .00010363  00000+0  35699-3 0  9992","line2":"2 64880  97.4538 113.7720 0005530 254.5324 105.5306 15.30204494 77256","mean_motion":15.30204494,"eccentricity":0.000553,"inclination_deg":97.4538,"raan_deg":113.772,"arg_perigee_deg":254.5324,"mean_anomaly_deg":105.5306,"bstar":0.00035699,"rev_number":7725,"period_min":94.105069331995,"perigee_km":471.41175490411,"apogee_km":478.99154745231,"semimajor_km":6853.3386511782,"source":"CELESTRAK","updated_at":"2026-05-25T13:38:23.327366Z"}}}